Time,TemperatureF,DewpointF,PressureIn,WindDirection,WindDirectionDegrees,WindSpeedMPH,WindSpeedGustMPH,Humidity,HourlyPrecipIn,Conditions,Clouds,dailyrainin,SolarRadiationWatts/m^2,SoftwareType,DateUTC
2013-03-17 00:02:00,5.0,-2.0,-100.00,WNW,303,10.0,16.0,71,0.00,,,0.00,0.000000,,2013-03-17 05:02:00,
2013-03-17 00:11:00,4.0,-3.0,-100.00,NW,308,10.0,13.0,72,0.00,,,0.00,0.000000,,2013-03-17 05:11:00,
2013-03-17 00:42:00,4.0,-3.0,-100.00,NW,308,10.0,13.0,72,0.00,,,0.00,0.000000,,2013-03-17 05:42:00,
2013-03-17 00:52:00,4.0,-3.0,-100.00,NW,308,10.0,13.0,72,0.00,,,0.00,0.000000,,2013-03-17 05:52:00,
2013-03-17 01:02:00,4.0,-3.0,-100.00,NW,308,10.0,13.0,72,0.00,,,0.00,0.000000,,2013-03-17 06:02:00,
2013-03-17 01:11:00,2.0,-5.0,-100.00,NW,320,7.0,12.0,73,0.00,,,0.00,0.000000,,2013-03-17 06:11:00,
2013-03-17 01:42:00,2.0,-5.0,-100.00,NW,320,7.0,12.0,73,0.00,,,0.00,0.000000,,2013-03-17 06:42:00,
2013-03-17 01:52:00,2.0,-5.0,-100.00,NW,320,7.0,12.0,73,0.00,,,0.00,0.000000,,2013-03-17 06:52:00,
2013-03-17 02:02:00,2.0,-5.0,-100.00,NW,320,7.0,12.0,73,0.00,,,0.00,0.000000,,2013-03-17 07:02:00,
2013-03-17 02:11:00,3.0,-4.0,-100.00,NNW,341,7.0,9.0,71,0.00,,,0.00,0.000000,,2013-03-17 07:11:00,
2013-03-17 02:42:00,3.0,-4.0,-100.00,NNW,341,7.0,9.0,71,0.00,,,0.00,0.000000,,2013-03-17 07:42:00,
2013-03-17 02:52:00,3.0,-4.0,-100.00,NNW,341,7.0,9.0,71,0.00,,,0.00,0.000000,,2013-03-17 07:52:00,
2013-03-17 03:03:00,3.0,-4.0,-100.00,NNW,341,7.0,9.0,71,0.00,,,0.00,0.000000,,2013-03-17 08:03:00,
2013-03-17 03:11:00,2.0,-4.0,-100.00,NNE,15,5.0,10.0,74,0.00,,,0.00,0.000000,,2013-03-17 08:11:00,
2013-03-17 03:42:00,2.0,-4.0,-100.00,NNE,15,5.0,10.0,74,0.00,,,0.00,0.000000,,2013-03-17 08:42:00,
2013-03-17 03:52:00,2.0,-4.0,-100.00,NNE,15,5.0,10.0,74,0.00,,,0.00,0.000000,,2013-03-17 08:52:00,
2013-03-17 04:03:00,2.0,-4.0,-100.00,NNE,15,5.0,10.0,74,0.00,,,0.00,0.000000,,2013-03-17 09:03:00,
2013-03-17 04:11:00,2.0,-5.0,-100.00,NE,34,5.0,7.0,72,0.00,,,0.00,0.000000,,2013-03-17 09:11:00,
2013-03-17 04:43:00,2.0,-5.0,-100.00,NE,34,5.0,7.0,72,0.00,,,0.00,0.000000,,2013-03-17 09:43:00,
2013-03-17 04:53:00,2.0,-5.0,-100.00,NE,34,5.0,7.0,72,0.00,,,0.00,0.000000,,2013-03-17 09:53:00,
2013-03-17 05:03:00,2.0,-5.0,-100.00,NE,34,5.0,7.0,72,0.00,,,0.00,0.000000,,2013-03-17 10:03:00,
2013-03-17 05:11:00,1.0,-5.0,-100.00,NE,38,5.0,6.0,74,0.00,,,0.00,0.000000,,2013-03-17 10:11:00,
2013-03-17 05:42:00,1.0,-5.0,-100.00,NE,38,5.0,6.0,74,0.00,,,0.00,0.000000,,2013-03-17 10:42:00,
2013-03-17 05:52:00,1.0,-5.0,-100.00,NE,38,5.0,6.0,74,0.00,,,0.00,0.000000,,2013-03-17 10:52:00,
2013-03-17 06:02:00,1.0,-5.0,-100.00,NE,38,5.0,6.0,74,0.00,,,0.00,0.000000,,2013-03-17 11:02:00,
2013-03-17 06:11:00,0.0,-6.0,-100.00,NNE,25,5.0,6.0,76,0.00,,,0.00,0.000000,,2013-03-17 11:11:00,
2013-03-17 06:43:00,0.0,-6.0,-100.00,NNE,25,5.0,6.0,76,0.00,,,0.00,0.000000,,2013-03-17 11:43:00,
2013-03-17 06:52:00,0.0,-6.0,-100.00,NNE,25,5.0,6.0,76,0.00,,,0.00,0.000000,,2013-03-17 11:52:00,
2013-03-17 07:02:00,0.0,-6.0,-100.00,NNE,25,5.0,6.0,76,0.00,,,0.00,0.000000,,2013-03-17 12:02:00,
2013-03-17 07:11:00,1.0,-6.0,-100.00,ENE,64,7.0,9.0,72,0.00,,,0.00,0.000000,,2013-03-17 12:11:00,
2013-03-17 07:33:00,1.0,-6.0,-100.00,ENE,64,7.0,9.0,72,0.00,,,0.00,0.000000,,2013-03-17 12:33:00,
2013-03-17 07:43:00,1.0,-6.0,-100.00,ENE,64,7.0,9.0,72,0.00,,,0.00,0.000000,,2013-03-17 12:43:00,
2013-03-17 07:52:00,1.0,-6.0,-100.00,ENE,64,7.0,9.0,72,0.00,,,0.00,0.000000,,2013-03-17 12:52:00,
2013-03-17 08:02:00,1.0,-6.0,-100.00,ENE,64,7.0,9.0,72,0.00,,,0.00,0.000000,,2013-03-17 13:02:00,
2013-03-17 08:11:00,4.0,-5.0,-100.00,ENE,77,7.0,11.0,66,0.00,,,0.00,50.000000,,2013-03-17 13:11:00,
2013-03-17 08:43:00,4.0,-5.0,-100.00,ENE,77,7.0,11.0,66,0.00,,,0.00,50.000000,,2013-03-17 13:43:00,
2013-03-17 08:52:00,4.0,-5.0,-100.00,ENE,77,7.0,11.0,66,0.00,,,0.00,50.000000,,2013-03-17 13:52:00,
2013-03-17 09:02:00,4.0,-5.0,-100.00,ENE,77,7.0,11.0,66,0.00,,,0.00,50.000000,,2013-03-17 14:02:00,
2013-03-17 09:11:00,7.0,-4.0,-100.00,East,86,8.0,12.0,61,0.00,,,0.00,228.000000,,2013-03-17 14:11:00,
2013-03-17 09:33:00,7.0,-4.0,-100.00,East,86,8.0,12.0,61,0.00,,,0.00,228.000000,,2013-03-17 14:33:00,
2013-03-17 09:43:00,7.0,-4.0,-100.00,East,86,8.0,12.0,61,0.00,,,0.00,228.000000,,2013-03-17 14:43:00,
2013-03-17 09:53:00,7.0,-4.0,-100.00,East,86,8.0,12.0,61,0.00,,,0.00,228.000000,,2013-03-17 14:53:00,
2013-03-17 10:02:00,7.0,-4.0,-100.00,East,86,8.0,12.0,61,0.00,,,0.00,228.000000,,2013-03-17 15:02:00,
2013-03-17 10:11:00,9.0,-1.0,-100.00,ESE,106,13.0,17.0,63,0.00,,,0.00,363.000000,,2013-03-17 15:11:00,
2013-03-17 10:33:00,9.0,-1.0,-100.00,ESE,106,13.0,17.0,63,0.00,,,0.00,363.000000,,2013-03-17 15:33:00,
2013-03-17 10:43:00,9.0,-1.0,-100.00,ESE,106,13.0,17.0,63,0.00,,,0.00,363.000000,,2013-03-17 15:43:00,
2013-03-17 10:53:00,9.0,-1.0,-100.00,ESE,106,13.0,17.0,63,0.00,,,0.00,363.000000,,2013-03-17 15:53:00,
2013-03-17 11:03:00,9.0,-1.0,-100.00,ESE,106,13.0,17.0,63,0.00,,,0.00,363.000000,,2013-03-17 16:03:00,
2013-03-17 11:11:00,15.0,3.0,-100.00,ESE,122,14.0,20.0,58,0.00,,,0.00,490.000000,,2013-03-17 16:11:00,
2013-03-17 11:33:00,15.0,3.0,-100.00,ESE,122,14.0,20.0,58,0.00,,,0.00,490.000000,,2013-03-17 16:33:00,
2013-03-17 11:43:00,15.0,3.0,-100.00,ESE,122,14.0,20.0,58,0.00,,,0.00,490.000000,,2013-03-17 16:43:00,
2013-03-17 11:52:00,15.0,3.0,-100.00,ESE,122,14.0,20.0,58,0.00,,,0.00,490.000000,,2013-03-17 16:52:00,
2013-03-17 12:02:00,15.0,3.0,-100.00,ESE,122,14.0,20.0,58,0.00,,,0.00,490.000000,,2013-03-17 17:02:00,
2013-03-17 12:11:00,18.0,6.0,-100.00,ESE,123,12.0,19.0,58,0.00,,,0.00,505.000000,,2013-03-17 17:11:00,
2013-03-17 12:42:00,18.0,6.0,-100.00,ESE,123,12.0,19.0,58,0.00,,,0.00,505.000000,,2013-03-17 17:42:00,
2013-03-17 12:53:00,18.0,6.0,-100.00,ESE,123,12.0,19.0,58,0.00,,,0.00,505.000000,,2013-03-17 17:53:00,
2013-03-17 13:02:00,18.0,6.0,-100.00,ESE,123,12.0,19.0,58,0.00,,,0.00,505.000000,,2013-03-17 18:02:00,
2013-03-17 13:11:00,20.0,8.0,-100.00,ESE,115,12.0,20.0,58,0.00,,,0.00,546.000000,,2013-03-17 18:11:00,
2013-03-17 13:42:00,20.0,8.0,-100.00,ESE,115,12.0,20.0,58,0.00,,,0.00,546.000000,,2013-03-17 18:42:00,
2013-03-17 13:52:00,20.0,8.0,-100.00,ESE,115,12.0,20.0,58,0.00,,,0.00,546.000000,,2013-03-17 18:52:00,
2013-03-17 14:02:00,20.0,8.0,-100.00,ESE,115,12.0,20.0,58,0.00,,,0.00,546.000000,,2013-03-17 19:02:00,
2013-03-17 14:11:00,24.0,11.0,-100.00,ESE,115,14.0,20.0,57,0.00,,,0.00,710.000000,,2013-03-17 19:11:00,
2013-03-17 14:42:00,24.0,11.0,-100.00,ESE,115,14.0,20.0,57,0.00,,,0.00,710.000000,,2013-03-17 19:42:00,
2013-03-17 14:53:00,24.0,11.0,-100.00,ESE,115,14.0,20.0,57,0.00,,,0.00,710.000000,,2013-03-17 19:53:00,
2013-03-17 15:02:00,24.0,11.0,-100.00,ESE,115,14.0,20.0,57,0.00,,,0.00,710.000000,,2013-03-17 20:02:00,
2013-03-17 15:11:00,26.0,11.0,-100.00,ESE,114,14.0,20.0,53,0.00,,,0.00,779.000000,,2013-03-17 20:11:00,
2013-03-17 15:33:00,26.0,11.0,-100.00,ESE,114,14.0,20.0,53,0.00,,,0.00,779.000000,,2013-03-17 20:33:00,
2013-03-17 15:43:00,26.0,11.0,-100.00,ESE,114,14.0,20.0,53,0.00,,,0.00,779.000000,,2013-03-17 20:43:00,
2013-03-17 15:52:00,26.0,11.0,-100.00,ESE,114,14.0,20.0,53,0.00,,,0.00,779.000000,,2013-03-17 20:52:00,
2013-03-17 16:03:00,26.0,11.0,-100.00,ESE,114,14.0,20.0,53,0.00,,,0.00,779.000000,,2013-03-17 21:03:00,
2013-03-17 16:11:00,25.0,12.0,-100.00,ESE,120,14.0,20.0,58,0.00,,,0.00,443.000000,,2013-03-17 21:11:00,
2013-03-17 16:33:00,25.0,12.0,-100.00,ESE,120,14.0,20.0,58,0.00,,,0.00,443.000000,,2013-03-17 21:33:00,
2013-03-17 16:43:00,25.0,12.0,-100.00,ESE,120,14.0,20.0,58,0.00,,,0.00,443.000000,,2013-03-17 21:43:00,
2013-03-17 16:52:00,25.0,12.0,-100.00,ESE,120,14.0,20.0,58,0.00,,,0.00,443.000000,,2013-03-17 21:52:00,
2013-03-17 17:03:00,25.0,12.0,-100.00,ESE,120,14.0,20.0,58,0.00,,,0.00,443.000000,,2013-03-17 22:03:00,
2013-03-17 17:11:00,25.0,14.0,-100.00,ESE,113,16.0,22.0,62,0.00,,,0.00,353.000000,,2013-03-17 22:11:00,
2013-03-17 17:42:00,25.0,14.0,-100.00,ESE,113,16.0,22.0,62,0.00,,,0.00,353.000000,,2013-03-17 22:42:00,
2013-03-17 17:53:00,25.0,14.0,-100.00,ESE,113,16.0,22.0,62,0.00,,,0.00,353.000000,,2013-03-17 22:53:00,
2013-03-17 18:02:00,25.0,14.0,-100.00,ESE,113,16.0,22.0,62,0.00,,,0.00,353.000000,,2013-03-17 23:02:00,
2013-03-17 18:11:00,24.0,14.0,-100.00,ESE,114,15.0,23.0,66,0.00,,,0.00,146.000000,,2013-03-17 23:11:00,
2013-03-17 18:33:00,24.0,14.0,-100.00,ESE,114,15.0,23.0,66,0.00,,,0.00,146.000000,,2013-03-17 23:33:00,
2013-03-17 18:43:00,24.0,14.0,-100.00,ESE,114,15.0,23.0,66,0.00,,,0.00,146.000000,,2013-03-17 23:43:00,
2013-03-17 18:53:00,24.0,14.0,-100.00,ESE,114,15.0,23.0,66,0.00,,,0.00,146.000000,,2013-03-17 23:53:00,
2013-03-17 19:03:00,24.0,14.0,-100.00,ESE,114,15.0,23.0,66,0.00,,,0.00,146.000000,,2013-03-18 00:03:00,
2013-03-17 20:11:00,24.0,15.0,-100.00,ESE,123,13.0,22.0,69,-99.99,,,-99.99,2.000000,,2013-03-18 01:11:00,
2013-03-17 20:33:00,24.0,15.0,-100.00,ESE,123,13.0,22.0,69,-99.99,,,-99.99,2.000000,,2013-03-18 01:33:00,
2013-03-17 20:42:00,24.0,15.0,-100.00,ESE,123,13.0,22.0,69,-99.99,,,-99.99,2.000000,,2013-03-18 01:42:00,
2013-03-17 20:52:00,24.0,15.0,-100.00,ESE,123,13.0,22.0,69,-99.99,,,-99.99,2.000000,,2013-03-18 01:52:00,
2013-03-17 21:02:00,24.0,15.0,-100.00,ESE,123,13.0,22.0,69,-99.99,,,-99.99,2.000000,,2013-03-18 02:02:00,
2013-03-17 21:11:00,25.0,17.0,-100.00,SE,127,14.0,20.0,70,0.00,,,0.00,0.000000,,2013-03-18 02:11:00,
2013-03-17 21:42:00,25.0,17.0,-100.00,SE,127,14.0,20.0,70,0.00,,,0.00,0.000000,,2013-03-18 02:42:00,
2013-03-17 21:52:00,25.0,17.0,-100.00,SE,127,14.0,20.0,70,0.00,,,0.00,0.000000,,2013-03-18 02:52:00,
2013-03-17 22:03:00,25.0,17.0,-100.00,SE,127,14.0,20.0,70,0.00,,,0.00,0.000000,,2013-03-18 03:03:00,
2013-03-17 22:11:00,25.0,18.0,-100.00,SE,125,13.0,18.0,73,0.00,,,0.00,0.000000,,2013-03-18 03:11:00,
2013-03-17 22:42:00,25.0,18.0,-100.00,SE,125,13.0,18.0,73,0.00,,,0.00,0.000000,,2013-03-18 03:42:00,
2013-03-17 22:53:00,25.0,18.0,-100.00,SE,125,13.0,18.0,73,0.00,,,0.00,0.000000,,2013-03-18 03:53:00,
2013-03-17 23:03:00,25.0,18.0,-100.00,SE,125,13.0,18.0,73,0.00,,,0.00,0.000000,,2013-03-18 04:03:00,
2013-03-17 23:11:00,26.0,19.0,-100.00,ESE,122,17.0,22.0,76,0.00,,,0.00,0.000000,,2013-03-18 04:11:00,
2013-03-17 23:42:00,26.0,19.0,-100.00,ESE,122,17.0,22.0,76,0.00,,,0.00,0.000000,,2013-03-18 04:42:00,
2013-03-17 23:53:00,26.0,19.0,-100.00,ESE,122,17.0,22.0,76,0.00,,,0.00,0.000000,,2013-03-18 04:53:00,